Flight Track Log - Related Links

Times and Time Zones

All times are in EDT time to prevent confusion due to time zone crossing. See the SWA714 flight status page for this flight to view local times or setup timezone preferences in your user account.

Time Position Orientation Groundspeed Altitude Reporting Facility
EDT Latitude Longitude Course Direction KTS MPH feet Rate Location/Type
05:51PM 32.9000 -96.9333 308° West 222 255 4,000  Level Dallas / Fort Worth TRACON
05:52PM 32.9500 -96.9833 320° Northwest 217 250 7,000 2,826 Climbing Dallas / Fort Worth TRACON
05:53PM 33.0000 -97.0167 331° Northwest 229 264 9,700 1,776 Climbing Dallas / Fort Worth TRACON
05:54PM 33.0231 -97.1483 282° West 267 307 11,500 1,669 Climbing Fort Worth Center
05:55PM 33.0128 -97.2597 264° West 320 368 13,900 2,150 Climbing Fort Worth Center
05:56PM 33.0044 -97.3664 265° West 355 409 15,800 2,050 Climbing Fort Worth Center
05:57PM 33.0025 -97.5000 269° West 367 422 18,000 2,150 Climbing Fort Worth Center
05:58PM 33.0231 -97.6264 281° West 367 422 20,100 1,900 Climbing Fort Worth Center
05:59PM 33.0439 -97.7381 283° West 380 437 21,800 1,900 Climbing Fort Worth Center
06:00PM 33.0706 -97.8819 283° West 393 452 23,900 2,350 Climbing Fort Worth Center
06:01PM 33.0908 -98.0061 281° West 401 461 26,500 2,000 Climbing Fort Worth Center
06:02PM 33.1111 -98.1278 281° West 383 441 27,900 1,650 Climbing Fort Worth Center
06:03PM 33.1311 -98.2519 281° West 383 441 29,800 1,600 Climbing Fort Worth Center
06:05PM 33.1333 -98.4026 270° West  Level FlightAware Approximate
06:05PM 33.1669 -98.4756 270° West 362 417 32,700  Level Fort Worth Center
06:06PM 33.1867 -98.5975 281° West 354 407 33,200 650 Climbing Fort Worth Center
06:07PM 33.2086 -98.7219 282° West 369 425 34,000 400 Climbing Fort Worth Center
06:08PM 33.2261 -98.8389 280° West 374 430 34,000  Level Fort Worth Center
06:09PM 33.2456 -98.9583 281° West 369 425 34,000  Level Fort Worth Center
06:10PM 33.2647 -99.0756 281° West 369 425 34,000  Level Fort Worth Center
06:11PM 33.2842 -99.1953 281° West 369 425 34,000  Level Fort Worth Center
06:12PM 33.3031 -99.3197 280° West 369 425 34,000  Level Fort Worth Center
06:13PM 33.3200 -99.4394 280° West 369 425 34,000  Level Fort Worth Center
06:14PM 33.3408 -99.5642 281° West 375 432 34,000  Level Fort Worth Center
06:15PM 33.3597 -99.6867 280° West 375 432 34,000  Level Fort Worth Center
06:16PM 33.3783 -99.8064 281° West 375 432 34,000  Level Fort Worth Center
06:17PM 33.3947 -99.9264 279° West 370 426 34,000  Level Fort Worth Center
06:18PM 33.4150 -100.0489 281° West 370 426 34,000 -50 Level Fort Worth Center
06:19PM 33.4314 -100.1689 279° West 370 426 33,900 -1,550 Descending Fort Worth Center
06:20PM 33.4475 -100.2839 280° West 370 426 30,900 -2,900 Descending Fort Worth Center
06:21PM 33.4656 -100.4089 280° West 370 426 28,100 -3,350 Descending Fort Worth Center
06:22PM 33.4833 -100.5342 280° West 379 436 24,200 -3,050 Descending Fort Worth Center
06:23PM 33.5031 -100.6544 281° West 385 443 22,000 -5,100 Descending Fort Worth Center
06:24PM 33.5208 -100.7744 280° West 385 443 14,000 -3,034 Descending Fort Worth Center
06:25PM 33.5217 -100.8219 271° West 362 417 17,600 1,900 Climbing Fort Worth Center
06:25PM 33.5367 -100.8822 287° West 370 426 15,900 -3,000 Descending Fort Worth Center
06:26PM 33.5431 -100.9547 276° West 362 417 14,600 -2,700 Descending Fort Worth Center
06:26PM 33.5539 -101.0100 283° West 370 426 13,200 -2,951 Descending Fort Worth Center
06:27PM 33.5586 -101.0675 276° West 342 394 11,600 -2,100 Descending Fort Worth Center
06:27PM 33.5678 -101.1078 285° West 345 397 11,100 -984 Descending Fort Worth Center
06:28PM 33.5722 -101.1728 275° West 322 371 10,600 -1,200 Descending Fort Worth Center
06:28PM 33.5811 -101.2181 283° West 314 361 9,900 -1,200 Descending Fort Worth Center
06:29PM 33.5861 -101.2633 278° West 273 314 9,400 -1,200 Descending Fort Worth Center
06:29PM 33.5933 -101.2986 284° West 287 330 8,700 -1,612 Descending Fort Worth Center
06:30PM 33.6019 -101.3611 279° West 265 305 7,600 -1,700 Descending Fort Worth Center
06:30PM 33.6092 -101.3964 284° West 275 316 7,000 -1,180 Descending Fort Worth Center
06:31PM 33.6175 -101.4567 279° West 271 312 6,400 -900 Descending Fort Worth Center
06:31PM 33.6231 -101.4819 285° West 279 321 6,100 -900 Descending Fort Worth Center
06:32PM 33.6314 -101.5472 279° West 284 327 5,500 -900 Descending Fort Worth Center
06:32PM 33.6386 -101.5750 287° West 274 315 5,200 -787 Descending Fort Worth Center
06:33PM 33.6472 -101.6303 281° West 253 291 4,700 -500 Descending Fort Worth Center
06:33PM 33.6508 -101.6478 284° West 256 295 4,700  Level Fort Worth Center
06:34PM 33.6572 -101.7106 277° West 229 264 4,700 -300 Level Fort Worth Center
06:34PM 33.6628 -101.7283 291° West 235 270 4,400 -982 Descending Fort Worth Center
06:35PM 33.6592 -101.7706 264° West 171 197 3,800 -900 Descending Fort Worth Center
06:35PM 33.6631 -101.7806 295° West 194 223 3,500 -444 Descending Fort Worth Center
06:36PM 33.6631 -101.8356 270° West 170 196 3,200 5,250 Descending Fort Worth Center
06:37PM 33.6611 -101.8928 268° West 170 196 14,000 5,400 Climbing Fort Worth Center
06:38PM 33.6592 -101.9475 268° West 170 196 14,000  Level Fort Worth Center
06:40PM 33.6637 -101.8206 88° East  Level Estimated
06:47PM 33.6637 -101.8206 132° Southeast  Level Estimated
06:48PM 33.6637 -101.8206 132° Southeast  Level Estimated
06:49PM 33.6637 -101.8206 132° Southeast  Level Estimated
06:50PM 33.6637 -101.8206 132° Southeast  Level Estimated
06:51PM 33.6637 -101.8206 132° Southeast  Level Estimated

Login

Don't have an account? Register now (free) for customized features, flight alerts, and more!